"startDT [UTC]","vpos","CH4 [ppm]","stdev(CH4) [ppm]","CO2 [ppm]","stdev(CO2) [ppm]","H2O [ppm]","stdev(H2O)","p_LGR [torr]","T_LGR [C]","mt1_LGR [us]","mt2_LGR [us]","T_ECpre [C]","T_EC1 [C]","T_EC2 [C]","p_inlet [hPa]","p_in [hPa]","p_out [hPa]","T_inlet [C]","RH_inlet [%]","dwpt_inlet [C]","T_vent [C]","RH_vent [%]","dwpt_vent [C]","flow_vent [l min-1]","flow_inlet [l min-1]","dwpt_sample [C]","T_room [C]"
2012-10-02 00:00:00,0.0,1.9640,0.0011,397.17,0.31,377.9,37.0,138.09,29.54,24.65,36.41,0.04,-272.75,-272.75,-42,568,-915,23.7,14.9,-4.5,24.1,15.0,-4.1,5.73,2.26,-21.6,29.2
2012-10-02 00:01:00,0.0,1.9641,0.0008,397.31,0.33,382.5,38.1,138.09,29.54,24.65,36.41,0.04,-272.75,-272.74,-41,568,-915,23.8,14.9,-4.5,24.0,15.0,-4.2,5.73,2.38,-21.6,29.2
2012-10-02 00:02:00,0.0,1.9646,0.0010,397.24,0.34,379.5,34.4,138.09,29.54,24.65,36.41,0.04,-272.74,-272.75,-42,568,-915,23.8,14.9,-4.5,24.1,15.0,-4.2,5.73,2.30,-21.6,29.2
2012-10-02 00:03:00,0.0,1.9644,0.0012,397.24,0.35,370.1,35.0,138.09,29.54,24.65,36.41,0.04,-272.75,-272.75,-42,568,-915,23.7,14.9,-4.6,24.1,15.0,-4.2,5.73,2.32,-21.6,29.2
2012-10-02 00:04:00,0.0,1.9644,0.0009,397.17,0.38,379.6,35.4,138.09,29.54,24.65,36.41,0.04,-272.74,-272.75,-42,568,-915,23.8,14.9,-4.5,24.1,15.0,-4.1,5.73,2.37,-21.6,29.2
2012-10-02 00:05:00,0.0,1.9632,0.0009,397.17,0.31,370.2,33.3,138.09,29.54,24.65,36.41,0.04,-272.74,-272.75,-42,568,-915,23.8,15.0,-4.4,24.1,15.1,-4.1,5.73,2.26,-21.6,29.2
2012-10-02 00:06:00,0.0,1.9638,0.0010,397.19,0.27,368.7,36.1,138.09,29.54,24.65,36.41,0.04,-272.75,-272.75,-42,568,-915,23.7,15.0,-4.4,24.1,15.1,-4.1,5.73,2.40,-21.6,29.2
2012-10-02 00:07:00,0.0,1.9635,0.0010,397.14,0.35,375.3,31.3,138.09,29.54,24.65,36.42,0.04,-272.75,-272.75,-42,568,-915,23.8,15.0,-4.4,24.1,15.1,-4.1,5.73,2.26,-21.6,29.2
2012-10-02 00:08:00,0.0,1.9633,0.0009,397.06,0.39,368.4,28.1,138.09,29.54,24.65,36.42,0.04,-272.74,-272.75,-42,568,-915,23.8,15.1,-4.3,24.1,15.2,-4.0,5.73,2.38,-21.6,29.2
2012-10-02 00:09:00,0.0,1.9634,0.0011,397.19,0.30,365.2,35.5,138.09,29.54,24.65,36.41,0.04,-272.75,-272.75,-42,568,-915,23.7,15.1,-4.3,24.1,15.2,-4.0,5.73,2.30,-21.6,29.1
2012-10-02 00:10:00,0.0,1.9634,0.0012,397.31,0.34,374.0,37.4,138.09,29.54,24.65,36.40,0.04,-272.75,-272.75,-42,568,-915,23.7,15.1,-4.3,24.1,15.2,-4.0,5.73,2.32,-21.6,29.1
2012-10-02 00:11:00,0.0,1.9639,0.0010,397.23,0.36,375.2,43.5,138.09,29.54,24.65,36.41,0.04,-272.75,-272.75,-42,568,-915,23.7,15.2,-4.3,24.1,15.3,-3.9,5.73,2.37,-21.6,29.1
2012-10-02 00:12:00,0.0,1.9640,0.0009,397.17,0.37,371.4,34.0,138.09,29.54,24.65,36.41,0.04,-272.74,-272.75,-42,568,-915,23.7,15.2,-4.3,24.1,15.3,-3.9,5.73,2.27,-21.6,29.2
2012-10-02 00:13:00,0.0,1.9645,0.0010,397.22,0.34,368.9,39.0,138.09,29.54,24.65,36.41,0.04,-272.75,-272.75,-42,568,-915,23.7,15.2,-4.3,24.1,15.3,-3.9,5.73,2.40,-21.6,29.1
2012-10-02 00:14:00,0.0,1.9648,0.0010,397.21,0.33,363.4,38.5,138.09,29.54,24.65,36.41,0.04,-272.75,-272.75,-42,568,-915,23.7,15.3,-4.2,24.1,15.4,-3.8,5.73,2.26,-21.6,29.2
2012-10-02 00:15:00,0.0,1.9642,0.0010,397.24,0.37,367.2,34.1,138.09,29.54,24.65,36.41,0.04,-272.75,-272.74,-42,568,-915,23.7,15.4,-4.1,24.1,15.5,-3.8,5.73,2.37,-21.6,29.2
2012-10-02 00:16:00,0.0,1.9634,0.0013,397.28,0.33,362.3,36.9,138.09,29.53,24.65,36.41,0.04,-272.75,-272.75,-42,568,-915,23.7,15.5,-4.1,24.1,15.5,-3.7,5.73,2.31,-21.6,29.2
2012-10-02 00:17:00,0.0,1.9623,0.0011,397.21,0.40,368.3,35.8,138.09,29.53,24.65,36.41,0.04,-272.75,-272.75,-42,568,-915,23.7,15.5,-4.0,24.1,15.5,-3.7,5.73,2.32,-21.6,29.1
2012-10-02 00:18:00,0.0,1.9627,0.0012,397.14,0.39,382.0,35.7,138.09,29.53,24.65,36.41,0.04,-272.74,-272.75,-42,568,-915,23.7,15.4,-4.1,24.1,15.5,-3.7,5.73,2.37,-21.6,29.2
2012-10-02 00:19:00,0.0,1.9620,0.0010,397.11,0.32,378.3,31.0,138.09,29.53,24.65,36.41,0.04,-272.74,-272.75,-42,568,-915,23.7,15.5,-4.0,24.1,15.6,-3.7,5.73,2.26,-21.6,29.2
2012-10-02 00:20:00,0.0,1.9607,0.0010,397.05,0.33,370.1,34.4,138.09,29.53,24.65,36.41,0.04,-272.75,-272.75,-41,568,-915,23.7,15.5,-4.1,24.1,15.6,-3.7,5.73,2.40,-21.6,29.1
2012-10-02 00:21:00,0.0,1.9586,0.0018,397.18,0.29,370.6,35.0,138.09,29.53,24.65,36.41,0.04,-272.74,-272.75,-42,568,-915,23.7,15.5,-4.0,24.1,15.6,-3.6,5.73,2.26,-21.6,29.1
2012-10-02 00:22:00,0.0,1.9575,0.0010,396.98,0.36,370.0,37.5,138.09,29.53,24.65,36.42,0.04,-272.74,-272.75,-42,568,-915,23.7,15.7,-3.8,24.1,15.8,-3.5,5.73,2.37,-21.6,29.1
2012-10-02 00:23:00,0.0,1.9575,0.0012,397.19,0.31,370.7,39.0,138.09,29.53,24.65,36.41,0.04,-272.75,-272.75,-42,568,-915,23.7,15.8,-3.8,24.1,15.9,-3.4,5.73,2.32,-21.6,29.1
2012-10-02 00:24:00,0.0,1.9589,0.0011,397.11,0.27,370.5,32.4,138.09,29.53,24.65,36.41,0.04,-272.75,-272.75,-42,568,-916,23.7,15.8,-3.7,24.1,15.9,-3.4,5.73,2.31,-21.6,29.1
2012-10-02 00:25:00,0.0,1.9596,0.0010,397.09,0.34,362.2,36.6,138.09,29.53,24.65,36.42,0.04,-272.75,-272.74,-42,568,-915,23.7,15.8,-3.7,24.1,15.9,-3.4,5.73,2.38,-21.6,29.1
2012-10-02 00:26:00,0.0,1.9599,0.0010,397.12,0.28,368.1,34.2,138.09,29.53,24.65,36.41,0.04,-272.75,-272.75,-42,568,-916,23.7,15.8,-3.7,24.1,15.9,-3.4,5.73,2.26,-21.6,29.1
2012-10-02 00:27:00,0.0,1.9598,0.0013,397.26,0.29,360.9,34.1,138.09,29.53,24.66,36.41,0.04,-272.75,-272.75,-42,568,-915,23.7,15.9,-3.7,24.1,16.0,-3.4,5.73,2.40,-21.6,29.1
2012-10-02 00:28:00,0.0,1.9611,0.0009,397.23,0.31,359.9,36.8,138.09,29.53,24.65,36.41,0.04,-272.75,-272.74,-41,568,-916,23.7,15.9,-3.7,24.1,16.0,-3.3,5.73,2.27,-21.6,29.1
2012-10-02 00:29:00,0.0,1.9610,0.0010,397.12,0.32,362.5,36.9,138.09,29.53,24.65,36.41,0.04,-272.75,-272.75,-42,568,-915,23.7,16.0,-3.6,24.0,16.0,-3.3,5.73,2.36,-21.6,29.1
2012-10-02 00:30:00,0.0,1.9611,0.0011,397.08,0.35,374.1,31.9,138.09,29.53,24.65,36.41,0.04,-272.75,-272.75,-42,568,-916,23.7,16.0,-3.6,24.1,16.1,-3.3,5.73,2.34,-21.6,29.1
2012-10-02 00:31:00,0.0,1.9615,0.0011,397.14,0.34,369.5,41.0,138.09,29.53,24.65,36.42,0.04,-272.75,-272.74,-42,568,-915,23.7,16.0,-3.6,24.1,16.2,-3.2,5.73,2.29,-21.6,29.1
2012-10-02 00:32:00,0.0,1.9617,0.0009,397.04,0.30,369.0,37.9,138.09,29.53,24.65,36.42,0.04,-272.75,-272.75,-42,568,-916,23.7,16.1,-3.5,24.1,16.2,-3.2,5.73,2.39,-21.6,29.1
2012-10-02 00:33:00,0.0,1.9611,0.0011,397.15,0.35,377.6,37.8,138.09,29.52,24.65,36.41,0.04,-272.75,-272.75,-42,568,-916,23.7,16.1,-3.5,24.1,16.2,-3.1,5.73,2.26,-21.6,29.1
2012-10-02 00:34:00,0.0,1.9610,0.0010,397.07,0.32,367.3,36.9,138.09,29.52,24.65,36.42,0.04,-272.75,-272.75,-42,568,-915,23.7,16.2,-3.5,24.1,16.3,-3.1,5.73,2.39,-21.6,29.1
2012-10-02 00:35:00,0.0,1.9598,0.0010,397.05,0.36,370.4,35.2,138.09,29.52,24.65,36.42,0.04,-272.74,-272.75,-42,568,-915,23.7,16.2,-3.5,24.1,16.3,-3.1,5.73,2.29,-21.6,29.1
2012-10-02 00:36:00,0.0,1.9593,0.0011,397.07,0.38,379.4,34.0,138.09,29.52,24.65,36.41,0.04,-272.74,-272.75,-42,568,-916,23.7,16.1,-3.5,24.1,16.2,-3.1,5.73,2.34,-21.6,29.1
2012-10-02 00:37:00,0.0,1.9601,0.0011,397.22,0.34,371.0,31.6,138.09,29.52,24.65,36.41,0.04,-272.75,-272.75,-42,568,-915,23.7,16.1,-3.5,24.1,16.2,-3.1,5.73,2.35,-21.6,29.1
2012-10-02 00:38:00,0.0,1.9595,0.0012,397.14,0.37,362.1,36.7,138.09,29.52,24.65,36.41,0.04,-272.75,-272.75,-42,568,-916,23.7,16.2,-3.4,24.1,16.3,-3.0,5.73,2.27,-21.6,29.1
2012-10-02 00:39:00,0.0,1.9584,0.0011,397.09,0.36,378.8,36.2,138.09,29.52,24.65,36.41,0.04,-272.75,-272.75,-42,568,-915,23.7,16.2,-3.4,24.1,16.3,-3.0,5.73,2.40,-21.6,29.1
2012-10-02 00:40:00,0.0,1.9584,0.0009,397.17,0.35,367.3,28.0,138.09,29.52,24.65,36.41,0.04,-272.75,-272.75,-42,568,-916,23.7,16.3,-3.4,24.1,16.4,-3.0,5.73,2.26,-21.6,29.1
2012-10-02 00:41:00,0.0,1.9594,0.0010,397.13,0.30,365.7,36.9,138.09,29.52,24.65,36.42,0.04,-272.74,-272.75,-42,568,-916,23.8,16.2,-3.4,24.0,16.4,-3.0,5.73,2.38,-21.6,29.1
2012-10-02 00:42:00,0.0,1.9591,0.0010,397.12,0.31,366.1,35.8,138.09,29.52,24.65,36.41,0.04,-272.74,-272.75,-42,568,-916,23.7,16.3,-3.3,24.1,16.5,-2.9,5.73,2.31,-21.6,29.1
2012-10-02 00:43:00,0.0,1.9594,0.0010,397.20,0.37,367.7,39.5,138.09,29.52,24.65,36.41,0.04,-272.75,-272.75,-42,568,-915,23.7,16.4,-3.3,24.1,16.5,-2.9,5.73,2.32,-21.6,29.1
2012-10-02 00:44:00,0.0,1.9595,0.0010,397.19,0.36,361.6,34.0,138.09,29.52,24.65,36.42,0.04,-272.75,-272.75,-42,568,-916,23.7,16.5,-3.2,24.1,16.6,-2.8,5.73,2.37,-21.6,29.1
2012-10-02 00:45:00,0.0,1.9591,0.0010,397.10,0.35,364.8,33.3,138.09,29.52,24.65,36.42,0.04,-272.75,-272.75,-42,568,-915,23.7,16.6,-3.1,24.1,16.7,-2.8,5.73,2.26,-21.6,29.1
2012-10-02 00:46:00,0.0,1.9583,0.0012,397.15,0.31,368.0,36.9,138.09,29.52,24.65,36.41,0.04,-272.75,-272.75,-42,568,-916,23.7,16.5,-3.1,24.1,16.7,-2.8,5.73,2.40,-21.6,29.0
2012-10-02 00:47:00,0.0,1.9585,0.0009,397.10,0.34,372.4,35.5,138.09,29.52,24.65,36.41,0.04,-272.75,-272.75,-42,568,-916,23.7,16.5,-3.2,24.1,16.6,-2.8,5.73,2.27,-21.6,29.1
2012-10-02 00:48:00,0.0,1.9586,0.0011,397.08,0.35,366.1,29.9,138.09,29.51,24.65,36.41,0.04,-272.75,-272.75,-42,568,-916,23.7,16.5,-3.2,24.1,16.7,-2.8,5.73,2.36,-21.6,29.1
2012-10-02 00:49:00,0.0,1.9581,0.0010,397.01,0.31,369.4,31.8,138.09,29.51,24.65,36.42,0.04,-272.75,-272.75,-42,568,-916,23.8,16.5,-3.2,24.1,16.6,-2.9,5.73,2.33,-21.6,29.1
2012-10-02 00:50:00,0.0,1.9580,0.0010,397.13,0.27,369.4,36.6,138.09,29.51,24.65,36.42,0.04,-272.75,-272.75,-42,568,-916,23.7,16.5,-3.2,24.1,16.6,-2.8,5.73,2.29,-21.6,29.1
2012-10-02 00:51:00,0.0,1.9582,0.0008,397.08,0.36,369.5,34.1,138.09,29.51,24.65,36.41,0.04,-272.75,-272.75,-42,568,-916,23.7,16.5,-3.2,24.0,16.6,-2.8,5.73,2.39,-21.6,29.1
2012-10-02 00:52:00,0.0,1.9575,0.0010,397.05,0.31,376.0,43.1,138.09,29.51,24.65,36.42,0.04,-272.75,-272.74,-42,568,-916,23.7,16.5,-3.2,24.0,16.6,-2.9,5.73,2.25,-21.6,29.1
2012-10-02 00:53:00,0.0,1.9577,0.0011,397.08,0.38,372.4,37.3,138.09,29.51,24.65,36.41,0.04,-272.75,-272.75,-42,568,-916,23.7,16.5,-3.2,24.1,16.6,-2.8,5.73,2.40,-21.6,29.1
2012-10-02 00:54:00,0.0,1.9583,0.0011,397.09,0.28,368.8,38.2,138.09,29.51,24.65,36.41,0.04,-272.75,-272.75,-42,568,-916,23.7,16.5,-3.2,24.1,16.6,-2.8,5.73,2.28,-21.6,29.1
2012-10-02 00:55:00,0.0,1.9594,0.0011,397.13,0.31,370.6,40.3,138.09,29.51,24.64,36.41,0.04,-272.75,-272.75,-42,568,-916,23.7,16.5,-3.2,24.1,16.7,-2.8,5.73,2.35,-21.6,29.0
2012-10-02 00:56:00,0.0,1.9593,0.0012,397.06,0.32,368.6,35.6,138.09,29.51,24.65,36.42,0.04,-272.75,-272.75,-42,568,-916,23.7,16.5,-3.1,24.0,16.7,-2.8,5.73,2.34,-21.6,29.1
2012-10-02 00:57:00,0.0,1.9592,0.0011,397.08,0.37,379.7,31.5,138.09,29.51,24.65,36.42,0.04,-272.74,-272.75,-42,568,-916,23.7,16.5,-3.1,24.1,16.7,-2.8,5.73,2.28,-21.5,29.1
2012-10-02 00:58:00,0.0,1.9591,0.0011,397.27,0.37,372.3,37.7,138.09,29.51,24.65,36.40,0.04,-272.74,-272.75,-42,568,-916,23.7,16.6,-3.1,24.0,16.7,-2.8,5.73,2.39,-21.6,29.0
2012-10-02 00:59:00,0.0,1.9585,0.0011,397.23,0.32,379.1,41.9,138.09,29.51,24.65,36.41,0.04,-272.75,-272.75,-42,568,-916,23.7,16.6,-3.1,24.0,16.7,-2.8,5.73,2.26,-21.6,29.1
2012-10-02 01:00:00,0.0,1.9588,0.0009,397.07,0.36,368.6,35.0,138.09,29.51,24.65,36.41,0.04,-272.75,-272.75,-42,568,-916,23.7,16.6,-3.1,24.1,16.8,-2.7,5.73,2.39,-21.6,29.0
2012-10-02 01:01:00,0.0,1.9594,0.0010,397.21,0.39,372.4,44.3,138.09,29.51,24.65,36.41,0.04,-272.75,-272.75,-42,568,-916,23.7,16.6,-3.1,24.0,16.7,-2.7,5.73,2.30,-21.6,29.1
2012-10-02 01:02:00,0.0,1.9593,0.0012,397.14,0.31,373.7,39.4,138.09,29.51,24.65,36.42,0.04,-272.75,-272.75,-42,568,-916,23.7,16.7,-3.0,24.0,16.8,-2.7,5.73,2.33,-21.6,29.1
2012-10-02 01:03:00,0.0,1.9596,0.0012,397.03,0.38,370.5,32.7,138.09,29.51,24.65,36.41,0.04,-272.75,-272.75,-42,568,-916,23.7,16.7,-3.0,24.1,16.8,-2.6,5.73,2.37,-21.6,29.1
2012-10-02 01:04:00,0.0,1.9597,0.0011,397.14,0.32,372.2,40.3,138.09,29.51,24.65,36.41,0.04,-272.75,-272.75,-42,568,-916,23.7,16.8,-2.9,24.0,16.9,-2.6,5.73,2.27,-21.6,29.1
2012-10-02 01:05:00,0.0,1.9587,0.0010,397.20,0.35,382.5,37.8,138.09,29.51,24.65,36.41,0.04,-272.75,-272.75,-42,568,-916,23.7,16.7,-3.0,24.0,16.9,-2.6,5.73,2.40,-21.6,29.1
2012-10-02 01:06:00,0.0,1.9592,0.0009,397.13,0.36,365.8,33.4,138.09,29.51,24.65,36.41,0.04,-272.75,-272.75,-42,568,-916,23.7,16.7,-3.0,24.0,16.9,-2.6,5.73,2.26,-21.6,29.1
2012-10-02 01:07:00,0.0,1.9586,0.0010,397.04,0.28,369.6,36.9,138.09,29.51,24.65,36.41,0.04,-272.75,-272.75,-42,568,-916,23.7,16.7,-3.0,24.0,16.8,-2.7,5.73,2.37,-21.6,29.0
2012-10-02 01:08:00,0.0,1.9593,0.0008,397.09,0.37,376.1,37.1,138.09,29.50,24.65,36.41,0.04,-272.75,-272.75,-42,568,-916,23.7,16.7,-3.0,24.0,16.8,-2.7,5.73,2.33,-21.6,29.1
2012-10-02 01:09:00,0.0,1.9599,0.0010,397.05,0.32,367.3,35.7,138.09,29.50,24.65,36.42,0.04,-272.74,-272.75,-42,568,-916,23.7,16.9,-2.9,24.0,17.0,-2.5,5.73,2.30,-21.6,29.1
2012-10-02 01:10:00,0.0,1.9602,0.0010,397.19,0.34,373.2,39.7,138.09,29.50,24.65,36.42,0.04,-272.75,-272.75,-42,568,-916,23.7,17.0,-2.8,24.0,17.1,-2.4,5.73,2.39,-21.6,29.1
2012-10-02 01:11:00,0.0,1.9598,0.0010,397.18,0.33,375.2,43.6,138.09,29.50,24.65,36.42,0.04,-272.75,-272.75,-42,568,-916,23.7,17.0,-2.8,24.0,17.2,-2.4,5.73,2.26,-21.6,29.1
2012-10-02 01:12:00,0.0,1.9603,0.0010,397.25,0.37,374.5,40.0,138.09,29.50,24.65,36.41,0.04,-272.74,-272.75,-42,568,-916,23.7,17.0,-2.8,24.0,17.1,-2.5,5.73,2.39,-21.6,29.1
2012-10-02 01:13:00,0.0,1.9596,0.0012,397.23,0.31,377.1,35.7,138.09,29.50,24.65,36.42,0.04,-272.74,-272.74,-42,568,-916,23.8,16.9,-2.8,24.1,17.1,-2.5,5.73,2.29,-21.5,29.1
2012-10-02 01:14:00,0.0,1.9589,0.0010,397.26,0.37,369.8,33.2,138.09,29.50,24.65,36.42,0.04,-272.75,-272.75,-42,568,-916,23.7,16.9,-2.9,24.0,17.0,-2.5,5.73,2.32,-21.5,29.1
2012-10-02 01:15:00,0.0,1.9583,0.0013,397.25,0.39,369.6,41.9,138.09,29.50,24.65,36.42,0.04,-272.74,-272.75,-42,568,-916,23.7,16.9,-2.8,24.0,17.1,-2.5,5.73,2.37,-21.6,29.1
2012-10-02 01:16:00,0.0,1.9576,0.0010,397.33,0.33,374.9,40.7,138.09,29.50,24.65,36.41,0.04,-272.74,-272.75,-42,568,-916,23.7,16.8,-2.9,24.0,17.0,-2.5,5.73,2.27,-21.5,29.1
2012-10-02 01:17:00,0.0,1.9581,0.0010,397.27,0.29,381.5,35.1,138.09,29.50,24.65,36.42,0.04,-272.75,-272.75,-42,568,-916,23.7,16.8,-2.9,24.0,17.0,-2.6,5.73,2.40,-21.6,29.0
2012-10-02 01:18:00,0.0,1.9567,0.0011,397.33,0.33,377.4,41.6,138.09,29.50,24.65,36.41,0.04,-272.75,-272.75,-42,568,-916,23.7,16.9,-2.9,24.0,17.0,-2.5,5.73,2.28,-21.5,29.0
2012-10-02 01:19:00,0.0,1.9560,0.0010,397.32,0.32,368.9,39.1,138.09,29.50,24.65,36.42,0.04,-272.74,-272.75,-42,568,-916,23.7,16.8,-3.0,24.0,16.9,-2.6,5.73,2.35,-21.6,29.0
2012-10-02 01:20:00,0.0,1.9568,0.0009,397.46,0.35,367.5,33.1,138.09,29.50,24.65,36.41,0.04,-272.75,-272.75,-42,568,-916,23.7,16.8,-2.9,24.0,16.9,-2.6,5.73,2.35,-21.6,29.1
2012-10-02 01:21:00,0.0,1.9573,0.0010,397.41,0.33,370.0,37.0,138.09,29.49,24.65,36.41,0.04,-272.75,-272.75,-42,568,-916,23.7,16.9,-2.9,24.0,17.0,-2.5,5.73,2.28,-21.6,29.1
2012-10-02 01:22:00,0.0,1.9571,0.0010,397.45,0.30,374.8,41.1,138.09,29.49,24.65,36.41,0.04,-272.75,-272.74,-42,568,-916,23.7,16.8,-2.9,24.1,17.0,-2.5,5.73,2.40,-21.6,29.1
2012-10-02 01:23:00,0.0,1.9591,0.0010,397.46,0.33,381.5,38.5,138.09,29.49,24.65,36.41,0.04,-272.74,-272.75,-42,568,-916,23.7,16.9,-2.9,24.0,17.0,-2.5,5.73,2.26,-21.6,29.0
2012-10-02 01:24:00,0.0,1.9578,0.0016,397.54,0.33,370.2,33.2,138.09,29.50,24.65,36.41,0.04,-272.75,-272.75,-42,568,-916,23.7,17.0,-2.8,24.0,17.1,-2.4,5.73,2.38,-21.5,29.1
2012-10-02 01:25:00,0.0,1.9555,0.0012,397.42,0.35,367.5,40.4,138.09,29.50,24.65,36.42,0.04,-272.75,-272.75,-42,568,-916,23.7,16.9,-2.9,24.0,17.1,-2.5,5.73,2.31,-21.5,29.1
2012-10-02 01:26:00,0.0,1.9558,0.0012,397.54,0.32,361.2,37.7,138.09,29.49,24.65,36.41,0.04,-272.74,-272.75,-42,568,-916,23.8,16.9,-2.8,24.0,17.1,-2.5,5.73,2.30,-21.5,29.1
2012-10-02 01:27:00,0.0,1.9557,0.0009,397.64,0.31,371.4,37.9,138.09,29.49,24.65,36.41,0.04,-272.75,-272.75,-42,568,-916,23.7,16.9,-2.9,24.0,17.0,-2.5,5.73,2.39,-21.5,29.0
2012-10-02 01:28:00,0.0,1.9571,0.0011,397.73,0.32,371.1,37.0,138.09,29.49,24.65,36.41,0.04,-272.75,-272.75,-42,568,-916,23.7,16.9,-2.9,24.0,17.0,-2.6,5.73,2.26,-21.5,29.1
2012-10-02 01:29:00,0.0,1.9567,0.0011,397.60,0.37,364.1,40.5,138.09,29.49,24.65,36.42,0.04,-272.74,-272.74,-42,568,-916,23.7,16.9,-2.9,24.0,17.0,-2.5,5.73,2.40,-21.5,29.1
2012-10-02 01:30:00,0.0,1.9565,0.0011,397.70,0.30,372.4,32.7,138.09,29.49,24.65,36.41,0.04,-272.74,-272.75,-42,568,-916,23.7,16.8,-2.9,24.0,17.0,-2.6,5.73,2.29,-21.5,29.1
2012-10-02 01:31:00,0.0,1.9587,0.0011,397.74,0.29,370.1,34.0,138.09,29.49,24.65,36.41,0.04,-272.75,-272.75,-42,568,-916,23.7,16.9,-2.8,24.0,17.1,-2.5,5.73,2.34,-21.5,29.1
2012-10-02 01:32:00,0.0,1.9592,0.0012,397.72,0.33,369.4,40.2,138.09,29.49,24.65,36.41,0.04,-272.75,-272.75,-42,568,-916,23.7,16.9,-2.8,24.0,17.1,-2.5,5.73,2.36,-21.5,29.1
2012-10-02 01:33:00,0.0,1.9594,0.0009,397.83,0.30,386.6,39.8,138.09,29.49,24.65,36.41,0.04,-272.74,-272.75,-42,568,-916,23.7,17.0,-2.8,24.0,17.1,-2.4,5.73,2.28,-21.5,29.1
2012-10-02 01:34:00,0.0,1.9586,0.0010,397.75,0.32,383.5,41.3,138.09,29.50,24.65,36.41,0.04,-272.75,-272.75,-42,568,-916,23.7,17.0,-2.8,24.0,17.2,-2.4,5.73,2.40,-21.5,29.1
2012-10-02 01:35:00,0.0,1.9582,0.0012,397.72,0.26,388.6,35.9,138.09,29.50,24.65,36.42,0.04,-272.75,-272.75,-42,568,-916,23.7,17.0,-2.8,24.0,17.1,-2.4,5.73,2.26,-21.5,29.1
2012-10-02 01:36:00,0.0,1.9583,0.0012,397.75,0.36,392.1,40.5,138.09,29.50,24.65,36.41,0.04,-272.75,-272.74,-42,568,-916,23.7,17.0,-2.8,24.0,17.1,-2.4,5.73,2.37,-21.5,29.1
2012-10-02 01:37:00,0.0,1.9563,0.0009,397.78,0.33,377.9,36.8,138.09,29.50,24.65,36.41,0.04,-272.75,-272.75,-42,568,-916,23.7,16.9,-2.8,24.0,17.1,-2.5,5.73,2.33,-21.5,29.1
2012-10-02 01:38:00,0.0,1.9563,0.0012,397.79,0.30,380.5,35.3,138.09,29.50,24.65,36.41,0.04,-272.75,-272.75,-42,568,-916,23.7,17.0,-2.8,24.1,17.1,-2.4,5.73,2.29,-21.5,29.1
2012-10-02 01:39:00,0.0,1.9572,0.0009,397.89,0.33,381.6,35.4,138.09,29.50,24.65,36.41,0.04,-272.74,-272.74,-42,568,-916,23.7,17.0,-2.8,24.0,17.2,-2.4,5.73,2.39,-21.5,29.0
2012-10-02 01:40:00,0.0,1.9585,0.0012,397.93,0.35,374.7,37.7,138.09,29.50,24.65,36.41,0.04,-272.75,-272.75,-42,568,-916,23.7,17.1,-2.7,24.1,17.3,-2.3,5.73,2.26,-21.5,29.0
2012-10-02 01:41:00,0.0,1.9573,0.0010,397.83,0.35,367.4,36.9,138.09,29.50,24.65,36.41,0.04,-272.75,-272.75,-42,568,-916,23.7,17.2,-2.7,24.0,17.3,-2.3,5.73,2.39,-21.5,29.1
2012-10-02 01:42:00,0.0,1.9587,0.0010,397.92,0.38,375.4,31.6,138.09,29.50,24.65,36.41,0.04,-272.75,-272.75,-42,568,-916,23.7,17.2,-2.7,24.1,17.4,-2.2,5.73,2.29,-21.5,29.0
2012-10-02 01:43:00,0.0,1.9609,0.0012,397.94,0.27,369.7,31.4,138.09,29.50,24.65,36.41,0.04,-272.75,-272.75,-42,568,-916,23.8,17.1,-2.6,24.1,17.3,-2.3,5.73,2.33,-21.5,29.0
2012-10-02 01:44:00,0.0,1.9603,0.0013,397.97,0.33,374.5,34.0,138.09,29.50,24.65,36.41,0.04,-272.75,-272.75,-42,568,-916,23.8,17.1,-2.7,24.0,17.3,-2.3,5.73,2.37,-21.5,29.1
2012-10-02 01:45:00,0.0,1.9626,0.0012,397.91,0.34,376.2,40.1,138.09,29.50,24.65,36.42,0.04,-272.75,-272.75,-42,568,-916,23.7,17.1,-2.7,24.1,17.3,-2.3,5.73,2.27,-21.5,29.1
2012-10-02 01:46:00,0.0,1.9604,0.0008,397.94,0.30,373.0,40.0,138.09,29.49,24.65,36.42,0.04,-272.75,-272.74,-42,568,-916,23.7,17.2,-2.7,24.0,17.3,-2.3,5.73,2.41,-21.5,29.1
2012-10-02 01:47:00,0.0,1.9598,0.0010,397.92,0.36,369.6,38.2,138.09,29.49,24.65,36.41,0.04,-272.74,-272.75,-42,568,-916,23.7,17.2,-2.7,24.0,17.3,-2.3,5.73,2.27,-21.5,29.1
2012-10-02 01:48:00,0.0,1.9592,0.0010,398.06,0.33,378.7,47.2,138.09,29.49,24.65,36.40,0.04,-272.75,-272.75,-42,568,-916,23.7,17.2,-2.6,24.0,17.4,-2.2,5.73,2.37,-21.5,29.1
2012-10-02 01:49:00,0.0,1.9592,0.0010,397.94,0.32,366.9,38.0,138.09,29.49,24.65,36.42,0.04,-272.75,-272.75,-42,568,-916,23.7,17.3,-2.6,24.0,17.4,-2.2,5.73,2.33,-21.5,29.1
2012-10-02 01:50:00,0.0,1.9598,0.0011,398.06,0.32,373.0,41.0,138.09,29.49,24.65,36.41,0.04,-272.75,-272.74,-42,568,-916,23.7,17.2,-2.6,24.0,17.4,-2.2,5.73,2.30,-21.5,29.1
2012-10-02 01:51:00,0.0,1.9600,0.0011,398.09,0.36,376.2,39.0,138.09,29.49,24.65,36.41,0.04,-272.75,-272.75,-42,568,-916,23.7,17.2,-2.6,24.0,17.4,-2.3,5.73,2.39,-21.5,29.1
2012-10-02 01:52:00,0.0,1.9602,0.0009,398.02,0.29,374.2,36.7,138.09,29.49,24.65,36.42,0.04,-272.74,-272.75,-42,568,-916,23.7,17.4,-2.5,24.0,17.5,-2.1,5.73,2.26,-21.5,29.1
2012-10-02 01:53:00,0.0,1.9591,0.0010,397.98,0.33,376.8,36.4,138.09,29.49,24.65,36.41,0.04,-272.74,-272.75,-42,568,-916,23.7,17.4,-2.4,24.0,17.6,-2.1,5.73,2.40,-21.5,29.1
2012-10-02 01:54:00,0.0,1.9577,0.0011,398.08,0.37,377.6,39.6,138.09,29.49,24.65,36.41,0.04,-272.75,-272.75,-42,568,-916,23.7,17.4,-2.5,24.1,17.5,-2.1,5.73,2.29,-21.5,29.1
2012-10-02 01:55:00,0.0,1.9563,0.0010,398.14,0.32,377.4,40.3,138.09,29.49,24.65,36.41,0.04,-272.75,-272.75,-42,568,-916,23.7,17.4,-2.5,24.0,17.5,-2.1,5.73,2.34,-21.5,29.1
2012-10-02 01:56:00,0.0,1.9563,0.0012,398.18,0.35,373.3,39.6,138.09,29.49,24.65,36.40,0.04,-272.75,-272.74,-42,568,-916,23.7,17.5,-2.4,24.0,17.6,-2.0,5.73,2.36,-21.5,29.1
2012-10-02 01:57:00,0.0,1.9550,0.0012,398.20,0.32,378.0,33.5,138.09,29.49,24.65,36.41,0.04,-272.75,-272.75,-42,568,-916,23.7,17.5,-2.4,24.0,17.7,-2.0,5.73,2.28,-21.5,29.1
2012-10-02 01:58:00,0.0,1.9552,0.0014,398.23,0.30,381.1,34.7,138.09,29.49,24.65,36.41,0.04,-272.75,-272.75,-42,568,-916,23.7,17.6,-2.3,24.1,17.8,-1.9,5.73,2.40,-21.5,29.1
2012-10-02 01:59:00,0.0,1.9520,0.0015,398.15,0.39,383.4,38.4,138.09,29.49,24.65,36.41,0.04,-272.75,-272.75,-42,568,-916,23.7,17.6,-2.3,24.0,17.8,-2.0,5.73,2.27,-21.5,29.1
2012-10-02 02:00:00,0.0,1.9509,0.0011,398.17,0.32,378.5,39.7,138.09,29.49,24.65,36.41,0.04,-272.74,-272.74,-42,568,-916,23.7,17.5,-2.3,24.0,17.7,-2.0,5.73,2.37,-21.5,29.0
2012-10-02 02:01:00,0.0,1.9500,0.0011,398.02,0.33,369.7,37.2,138.09,29.49,24.65,36.41,0.04,-272.75,-272.75,-42,568,-916,23.7,17.5,-2.4,24.0,17.6,-2.0,5.73,2.33,-21.5,29.1
2012-10-02 02:02:00,0.0,1.9502,0.0012,398.10,0.34,370.1,39.4,138.09,29.49,24.65,36.41,0.04,-272.75,-272.75,-42,568,-916,23.7,17.5,-2.4,24.0,17.6,-2.0,5.73,2.29,-21.5,29.1
2012-10-02 02:03:00,0.0,1.9493,0.0010,398.00,0.32,379.3,37.7,138.09,29.49,24.65,36.41,0.04,-272.75,-272.74,-42,568,-916,23.7,17.5,-2.4,24.0,17.7,-2.0,5.73,2.40,-21.5,29.0
2012-10-02 02:04:00,0.0,1.9499,0.0012,398.15,0.28,381.7,35.3,138.09,29.49,24.65,36.41,0.04,-272.75,-272.75,-42,568,-916,23.7,17.5,-2.4,24.0,17.6,-2.0,5.73,2.26,-21.5,29.1
2012-10-02 02:05:00,0.0,1.9521,0.0017,398.10,0.31,377.1,33.2,138.09,29.49,24.65,36.41,0.04,-272.74,-272.75,-42,568,-916,23.7,17.5,-2.4,24.1,17.7,-2.0,5.73,2.37,-21.5,29.1
2012-10-02 02:06:00,0.0,1.9540,0.0010,398.02,0.30,374.9,39.8,138.09,29.49,24.65,36.41,0.04,-272.74,-272.75,-42,568,-916,23.7,17.5,-2.4,24.1,17.6,-2.0,5.73,2.33,-21.5,29.1
2012-10-02 02:07:00,0.0,1.9551,0.0012,398.04,0.29,372.9,38.7,138.09,29.49,24.65,36.41,0.04,-272.75,-272.75,-42,568,-916,23.7,17.4,-2.5,24.0,17.6,-2.1,5.73,2.30,-21.5,29.1
2012-10-02 02:08:00,0.0,1.9558,0.0013,398.11,0.31,380.2,43.1,138.09,29.49,24.65,36.41,0.04,-272.74,-272.75,-42,568,-916,23.8,17.5,-2.4,24.0,17.6,-2.0,5.73,2.39,-21.5,29.1
2012-10-02 02:09:00,0.0,1.9584,0.0016,398.21,0.33,383.6,33.5,138.09,29.49,24.65,36.41,0.04,-272.74,-272.75,-42,568,-916,23.7,17.6,-2.4,24.0,17.7,-2.0,5.73,2.26,-21.5,29.0
2012-10-02 02:10:00,0.0,1.9617,0.0010,398.23,0.32,377.8,35.6,138.09,29.49,24.65,36.41,0.04,-272.74,-272.75,-42,568,-916,23.7,17.5,-2.4,24.1,17.7,-2.0,5.73,2.39,-21.4,29.1
2012-10-02 02:11:00,0.0,1.9619,0.0013,398.25,0.34,380.0,35.5,138.09,29.49,24.65,36.41,0.04,-272.74,-272.75,-42,568,-916,23.7,17.4,-2.4,24.0,17.6,-2.1,5.73,2.30,-21.4,29.1
2012-10-02 02:12:00,0.0,1.9613,0.0010,398.25,0.36,389.8,36.1,138.09,29.49,24.65,36.42,0.04,-272.75,-272.75,-42,568,-916,23.7,17.4,-2.5,24.0,17.5,-2.1,5.73,2.33,-21.4,29.1
2012-10-02 02:13:00,0.0,1.9616,0.0018,398.32,0.35,384.2,37.6,138.09,29.49,24.65,36.41,0.04,-272.75,-272.75,-42,568,-916,23.7,17.4,-2.4,24.0,17.6,-2.1,5.73,2.36,-21.4,29.1
2012-10-02 02:14:00,0.0,1.9551,0.0019,398.28,0.34,383.9,40.2,138.09,29.49,24.65,36.41,0.04,-272.75,-272.75,-42,568,-916,23.7,17.4,-2.4,24.1,17.6,-2.1,5.73,2.27,-21.4,29.1
2012-10-02 02:15:00,0.0,1.9517,0.0024,398.09,0.32,378.0,36.5,138.09,29.49,24.65,36.42,0.04,-272.75,-272.75,-42,568,-916,23.7,17.4,-2.4,24.0,17.6,-2.1,5.73,2.40,-21.4,29.1
2012-10-02 02:16:00,0.0,1.9496,0.0010,398.22,0.36,373.1,36.8,138.09,29.49,24.65,36.41,0.04,-272.75,-272.75,-42,568,-916,23.7,17.5,-2.4,24.1,17.6,-2.0,5.73,2.27,-21.4,29.1